Погода в Пуасси

Франция     48°55′53″N   2°02′43″E
темп.,
°C
ветер,
м/с
пор.,
м/с
влажн.,
%
обл.,
%
осадки,
мм/ч
давл.,
гПа
погр.,
м
28 июня, вт
вт2823:00+18с255380 0.0 1022228
02:00+15с116742 0.0 102143
05:00+13с127626 0.0 102149
08:00+15всв126873 0.0 1021244
11:00+21юв22460 0.0 1020949
14:00+24ююз3432100 0.0 10182130
17:00+26ююз34285 0.0 10162268
20:00+24ююз34330 0.0 10161736
29 июня, ср
ср2923:00+20ююз2444100 0.0 101683
02:00+17юз26505 0.0 1015164
05:00+14з126155 0.0 101590
08:00+15зюз356155 0.0 1016254
11:00+21юз35375 0.0 10151059
14:00+24юз453596 0.0 10131871
17:00+26юз4635100 0.0 10122358
20:00+17зсз5883100 0.4 1012436
30 июня, чт
чт3023:00+15сз259469 2.9 1013267
02:00+15з1395100 3.3 1012209
05:00+14ююз2594100 1.6 1012242
08:00+13юз1395100 3.6 1012238
11:00+13ююз3795100 6.7 1013497
14:00+14ю3688100 7.9 1015659
17:00+18ююз575790 0.3 10151592
20:00+19юз464599 0.6 1014964
1 июля, пт
пт123:00+16ссз2258100 0.0 101758
02:00+13сз23726 0.0 101869
05:00+11з22784 0.0 101970
08:00+13з24715 0.0 1020228
11:00+18з34490 0.0 10211272
14:00+22з243436 0.0 10202467
17:00+24зсз232948 0.0 10202611
20:00+22с2337100 0.0 1021232
2 июля, сб
сб223:00+17ссв49644 0.0 1022321
02:00+14ссв37747 0.0 1023206
05:00+13св12770 0.0 102354
08:00+15в12620 0.0 1024195
11:00+22ююв12420 0.0 1023813
14:00+25юв22310 0.0 10222045
17:00+27вюв22280 0.0 10212399
20:00+26вюв22320 0.0 10211481